Regional Weather Roundup
Issued by NWS

Home | Current Version | Previous Version | Graphics & Text | Print | Product List | Glossary On
Versions: 1 2 3 4 5 6 7 8 9 10 11 12 13 14 15 16 17 18 19 20 21 22 23 24 25 26 27 28 29 30 31 32 33 34 35 36 37 38 39 40 41 42 43 44 45 46 47 48 49 50
987
ASUS43 KLSX 111207
RWRMO

WEATHER SUMMARY FOR MISSOURI
NATIONAL WEATHER SERVICE SPRINGFIELD MO
600 AM CST THU FEB 11 2016

NOTE: "FAIR" INDICATES FEW OR NO CLOUDS BELOW 12,000 FEET WITH NO
       SIGNIFICANT WEATHER AND/OR OBSTRUCTIONS TO VISIBILITY.
       CURRENT SKY AND/OR WEATHER CONDITIONS ARE NOT AVAILABLE FOR
       CHILLICOTHE AND FARMINGTON.

MOZ001>031-035>038-043-044-053-054-111300-
...NORTHERN AND WESTERN MISSOURI...

CITY           SKY/WX    TMP DP  RH WIND       PRES   REMARKS
KANSAS CTY INT PTCLDY    21  18  88 NE6       30.21R WCI  13
6HR MIN TEMP:  21; 6HR MAX TEMP:  25;

KANSAS C DTWN  PTCLDY    23  18  81 NE8       30.23R WCI  14
6HR MIN TEMP:  23; 6HR MAX TEMP:  27;

LEE`S SUMMIT   PTCLDY    22  18  85 NE8       30.22R WCI  12
6HR MIN TEMP:  22; 6HR MAX TEMP:  26;

ST JOSEPH      PTCLDY    20  17  88 NE7       30.25R WCI  11
6HR MIN TEMP:  20; 6HR MAX TEMP:  27;

CHILLICOTHE      N/A     22  16  78 NE9       30.27R WCI  12
6HR MIN TEMP:  22; 6HR MAX TEMP:  25;

KIRKSVILLE     MOCLDY    16   9  74 NE9       30.27R WCI   4
6HR MIN TEMP:  16; 6HR MAX TEMP:  20;


$$
MOZ066>068-077>081-088>096-101>105-111300-
...SOUTHWEST MISSOURI...

CITY           SKY/WX    TMP DP  RH WIND       PRES   REMARKS
SPRINGFIELD    CLEAR     27  16  63 NE9       30.10R WCI  18
6HR MIN TEMP:  25; 6HR MAX TEMP:  34;

JOPLIN         CLEAR     27  21  78 NE12      30.13R WCI  17
6HR MIN TEMP:  27; 6HR MAX TEMP:  37;


$$
MOZ032>034-039>042-045>050-055>058-069>072-111300-
...CENTRAL MISSOURI...

CITY           SKY/WX    TMP DP  RH WIND       PRES   REMARKS
COLUMBIA       CLOUDY    22  18  85 NE13      30.22R WCI  10
6HR MIN TEMP:  20; 6HR MAX TEMP:  25;

JEFFERSON CITY CLOUDY    23  18  81 NE7       30.25R WCI  15
6HR MIN TEMP:  23; 6HR MAX TEMP:  26;

ROLLA          CLOUDY    22  19  89 NE12      30.17R WCI  10
6HR MIN TEMP:  20; 6HR MAX TEMP:  23;

SEDALIA        PTCLDY    22  17  81 NE8       30.22R WCI  12
6HR MIN TEMP:  22; 6HR MAX TEMP:  27;

WHITEMAN AFB   PTCLDY    21  18  88 NE6       30.20R WCI  14
WARRENSBURG    PTCLDY    21  19  93 N7        30.22S WCI  13
OSAGE BEACH    CLEAR     21  14  73 NE7       30.20R WCI  13

$$
MOZ051-052-059>065-111300-
...EAST CENTRAL MISSOURI...

CITY           SKY/WX    TMP DP  RH WIND       PRES   REMARKS
ST LOUIS INTL  CLOUDY    23  16  74 NE8       30.26R WCI  14
6HR MIN TEMP:  23; 6HR MAX TEMP:  24;

SPIRIT OF STL  CLOUDY    22  16  78 NE8       30.26R WCI  12
6HR MIN TEMP:  22; 6HR MAX TEMP:  24;

ST CHARLES     CLOUDY    21  16  81 NE8       30.27R WCI  11
6HR MIN TEMP:  21; 6HR MAX TEMP:  23;


$$
MOZ072>076-082>087-097>100-106>115-111300-
...SOUTH CENTRAL AND SOUTHEAST MISSOURI...

CITY           SKY/WX    TMP DP  RH WIND       PRES   REMARKS
CAPE GIRARDEAU CLOUDY    25  19  78 NE8       30.22R WCI  16
6HR MIN TEMP:  19; 6HR MAX TEMP:  25;

FARMINGTON     CLOUDY    23  19  85 NE6       30.22R WCI  16
6HR MIN TEMP:  16; 6HR MAX TEMP:  23;

POPLAR BLUFF   CLEAR     24  19  81 NE10      30.18R WCI  14
6HR MIN TEMP:  23; 6HR MAX TEMP:  24;

WEST PLAINS    CLOUDY    21  12  68 NE9       30.12R WCI  11
6HR MIN TEMP:  21; 6HR MAX TEMP:  27;


$$



USA.gov is the U.S. government's official web portal to all federal, state and local government web resources and services.